Nan, Thailand

11:14 PM ICT on February 27, 2017 (GMT +0700)
Nan

Weather History for 48331 - December, 2013

Change the Weather History Date:

Friday, December 20, 2013

  Actual Average Record
Temperature  
Mean Temperature 64 °F -  
Max Temperature 77 °F 85 °F - ()
Min Temperature 51 °F 57 °F - ()
Degree Days  
Heating Degree Days 1    
Growing Degree Days 14 (Base 50)    
Moisture  
Dew Point 51 °F    
Average Humidity 63    
Maximum Humidity 100    
Minimum Humidity 31    
Precipitation  
Precipitation 0.00 in 0.01 in - ()
Sea Level Pressure  
Sea Level Pressure 30.04 in    
Wind  
Wind Speed 1 mph ()    
Max Wind Speed 4 mph    
Max Gust Speed -    
Visibility 5.1 miles    
Events Fog    
T = Trace of Precipitation, MM = Missing Value Source: Averaged Metar Reports

Daily Weather History Graph

Daily Weather History Graph

Search for Another Location

Airport or City:

Trip Planner

Search our weather history database for the weather conditions in past years. The results will help you decide how hot, cold, wet, or windy it might be!

Date:

Astronomy

Dec. 20, 2013 Rise Set
Actual Time 6:44 AM ICT 5:44 PM ICT
Civil Twilight 6:20 AM ICT 6:08 PM ICT
Nautical Twilight 5:53 AM ICT 6:35 PM ICT
Astronomical Twilight 5:26 AM ICT 7:02 PM ICT
Moon 8:16 PM ICT (12/20) 8:36 AM ICT (12/20)
Length of Visible Light 11h 47m
Length of Day
11h 00m
Waning Gibbous, 93% of the Moon is Illuminated
Dec 20
Waning Gibbous
Dec 25
Last Quarter
Jan 1
New
Jan 8
First Quarter
Jan 16
Full

Hourly Weather History & Observations

Time (ICT) Temp. Dew Point Humidity Pressure Visibility Wind Dir Wind Speed Gust Speed Precip Events Conditions
1:00 AM 58 °F 55 °F 86% 30.07 in 6 mi Calm Calm - -   Mostly Cloudy
4:00 AM 58 °F 55 °F 87% 30.05 in 6 mi Calm Calm - -   Overcast
7:00 AM 56 °F 55 °F 96% 30.09 in 0 mi Calm Calm - - Fog Heavy Fog
7:00 AM 51.8 °F 51.8 °F 100% 30.06 in 1.2 mi North 2.3 mph - N/A   Partly Cloudy
8:00 AM 57.2 °F 57.2 °F 100% 30.09 in 1.2 mi Variable 1.2 mph - N/A   Partly Cloudy
9:00 AM 59.0 °F 57.2 °F 94% 30.09 in 1.6 mi Variable 3.5 mph - N/A   Mostly Cloudy
10:00 AM 65 °F 55 °F 61% 30.13 in 5 mi Calm Calm - -   Mist
10:00 AM 64.4 °F 51.8 °F 64% 30.12 in 2.5 mi Variable 2.3 mph - N/A   Partly Cloudy
11:00 AM 69.8 °F 48.2 °F 46% 30.09 in 6.2 mi Variable 3.5 mph - N/A   Partly Cloudy
12:00 PM 71.6 °F 44.6 °F 38% 30.06 in 6.2 mi Variable 3.5 mph - N/A   Scattered Clouds
1:00 PM 74 °F 51 °F 34% 30.02 in 7 mi Calm Calm - -   Partly Cloudy
1:00 PM 75.2 °F 42.8 °F 31% 30.04 in 6.2 mi Variable 1.2 mph - N/A   Scattered Clouds
2:00 PM 75.2 °F 42.8 °F 31% 29.98 in 6.2 mi Variable 3.5 mph - N/A   Scattered Clouds
3:00 PM 75.2 °F 42.8 °F 31% 29.98 in 6.2 mi Variable 3.5 mph - N/A   Scattered Clouds
4:00 PM 76 °F 52 °F 33% 29.97 in 7 mi Calm Calm - -   Scattered Clouds
4:00 PM 75.2 °F 42.8 °F 31% 29.98 in 6.2 mi Variable 3.5 mph - N/A   Scattered Clouds
5:00 PM 73.4 °F 42.8 °F 33% 29.98 in 6.2 mi Variable 3.5 mph - N/A   Partly Cloudy
6:00 PM 64.4 °F 48.2 °F 56% 29.98 in 6.2 mi Variable 1.2 mph - N/A   Partly Cloudy
7:00 PM 65 °F 56 °F 66% 30.00 in 7 mi Calm Calm - -  
7:00 PM 59.0 °F 57.2 °F 94% 30.01 in 6.2 mi Variable 1.2 mph - N/A   Partly Cloudy
8:00 PM 57.2 °F 57.2 °F 100% 30.04 in 6.2 mi Variable 1.2 mph - N/A   Partly Cloudy
10:00 PM 61 °F 56 °F 78% 30.08 in 6 mi Calm Calm - -   Partly Cloudy